Time,TemperatureF,DewpointF,PressureIn,WindDirection,WindDirectionDegrees,WindSpeedMPH,WindSpeedGustMPH,Humidity,HourlyPrecipIn,Conditions,Clouds,dailyrainin,SoftwareType,DateUTC
2013-01-24 00:02:00,2.0,-10.0,29.03,NNE,33,0.0,1.0,55,0.00,,,0.00,,2013-01-24 09:02:00,
2013-01-24 00:12:00,2.0,-10.0,29.03,NNE,33,0.0,1.0,55,0.00,,,0.00,,2013-01-24 09:12:00,
2013-01-24 00:22:00,2.0,-10.0,29.03,NE,36,0.0,1.0,57,0.00,,,0.00,,2013-01-24 09:22:00,
2013-01-24 00:32:00,2.0,-10.0,29.03,NE,37,0.0,0.0,55,0.00,,,0.00,,2013-01-24 09:32:00,
2013-01-24 00:42:00,2.0,-10.0,29.03,NE,37,0.0,0.0,55,0.00,,,0.00,,2013-01-24 09:42:00,
2013-01-24 00:52:00,2.0,-10.0,29.03,NE,38,0.0,0.0,56,0.00,,,0.00,,2013-01-24 09:52:00,
2013-01-24 01:02:00,1.0,-10.0,29.04,ESE,119,0.0,0.0,58,0.00,,,0.00,,2013-01-24 10:02:00,
2013-01-24 01:12:00,1.0,-10.0,29.04,ESE,119,0.0,0.0,58,0.00,,,0.00,,2013-01-24 10:12:00,
2013-01-24 01:22:00,1.0,-9.0,29.04,ESE,104,0.0,0.0,61,0.00,,,0.00,,2013-01-24 10:22:00,
2013-01-24 01:32:00,1.0,-9.0,29.04,ESE,104,0.0,0.0,63,0.00,,,0.00,,2013-01-24 10:32:00,
2013-01-24 01:42:00,1.0,-9.0,29.04,ESE,104,0.0,0.0,63,0.00,,,0.00,,2013-01-24 10:42:00,
2013-01-24 01:52:00,1.0,-9.0,29.04,ESE,104,0.0,0.0,63,0.00,,,0.00,,2013-01-24 10:52:00,
2013-01-24 02:02:00,0.0,-9.0,29.05,ESE,103,0.0,0.0,65,0.00,,,0.00,,2013-01-24 11:02:00,
2013-01-24 02:12:00,0.0,-9.0,29.05,ESE,103,0.0,0.0,65,0.00,,,0.00,,2013-01-24 11:12:00,
2013-01-24 02:22:00,0.0,-9.0,29.05,ESE,103,0.0,0.0,66,0.00,,,0.00,,2013-01-24 11:22:00,
2013-01-24 02:32:00,0.0,-9.0,29.05,ESE,103,0.0,0.0,66,0.00,,,0.00,,2013-01-24 11:32:00,
2013-01-24 02:42:00,0.0,-9.0,29.05,ESE,103,0.0,0.0,66,0.00,,,0.00,,2013-01-24 11:42:00,
2013-01-24 02:52:00,0.0,-9.0,29.05,NE,34,0.0,1.0,66,0.00,,,0.00,,2013-01-24 11:52:00,
2013-01-24 03:03:00,0.0,-9.0,29.05,North,0,0.0,1.0,66,0.00,,,0.00,,2013-01-24 12:03:00,
2013-01-24 03:12:00,0.0,-9.0,29.05,North,0,0.0,1.0,66,0.00,,,0.00,,2013-01-24 12:12:00,
2013-01-24 03:22:00,0.0,-9.0,29.06,North,0,0.0,1.0,66,0.00,,,0.00,,2013-01-24 12:22:00,
2013-01-24 03:32:00,-1.0,-10.0,29.06,North,0,0.0,1.0,65,0.00,,,0.00,,2013-01-24 12:32:00,
2013-01-24 03:42:00,-1.0,-10.0,29.06,North,0,0.0,1.0,65,0.00,,,0.00,,2013-01-24 12:42:00,
2013-01-24 03:52:00,-1.0,-10.0,29.06,North,0,0.0,1.0,64,0.00,,,0.00,,2013-01-24 12:52:00,
2013-01-24 04:02:00,-1.0,-10.0,29.06,North,0,0.0,1.0,64,0.00,,,0.00,,2013-01-24 13:02:00,
2013-01-24 04:12:00,-1.0,-10.0,29.06,North,0,0.0,1.0,64,0.00,,,0.00,,2013-01-24 13:12:00,
2013-01-24 04:22:00,-1.0,-11.0,29.06,North,0,0.0,1.0,62,0.00,,,0.00,,2013-01-24 13:22:00,
2013-01-24 04:32:00,-1.0,-11.0,29.06,North,0,0.0,1.0,62,0.00,,,0.00,,2013-01-24 13:32:00,
2013-01-24 04:42:00,-1.0,-11.0,29.06,North,0,0.0,1.0,62,0.00,,,0.00,,2013-01-24 13:42:00,
2013-01-24 04:52:00,-1.0,-11.0,29.07,North,0,0.0,1.0,63,0.00,,,0.00,,2013-01-24 13:52:00,
2013-01-24 05:02:00,-2.0,-11.0,29.07,North,0,0.0,1.0,64,0.00,,,0.00,,2013-01-24 14:02:00,
2013-01-24 05:12:00,-2.0,-11.0,29.07,North,0,0.0,1.0,64,0.00,,,0.00,,2013-01-24 14:12:00,
2013-01-24 05:22:00,-2.0,-11.0,29.06,North,0,0.0,1.0,64,0.00,,,0.00,,2013-01-24 14:22:00,
2013-01-24 05:33:00,-2.0,-11.0,29.07,North,0,0.0,1.0,64,0.00,,,0.00,,2013-01-24 14:33:00,
2013-01-24 05:43:00,-2.0,-11.0,29.07,North,0,0.0,1.0,64,0.00,,,0.00,,2013-01-24 14:43:00,
2013-01-24 05:53:00,-2.0,-11.0,29.07,North,0,0.0,1.0,64,0.00,,,0.00,,2013-01-24 14:53:00,
2013-01-24 06:03:00,-2.0,-11.0,29.07,North,0,0.0,1.0,63,0.00,,,0.00,,2013-01-24 15:03:00,
2013-01-24 06:12:00,-2.0,-11.0,29.07,North,0,0.0,1.0,63,0.00,,,0.00,,2013-01-24 15:12:00,
2013-01-24 06:22:00,-2.0,-11.0,29.08,North,0,0.0,1.0,63,0.00,,,0.00,,2013-01-24 15:22:00,
2013-01-24 06:32:00,-2.0,-11.0,29.08,North,0,0.0,1.0,63,0.00,,,0.00,,2013-01-24 15:32:00,
2013-01-24 06:42:00,-3.0,-12.0,29.08,North,0,0.0,1.0,63,0.00,,,0.00,,2013-01-24 15:42:00,
2013-01-24 06:52:00,-3.0,-12.0,29.08,North,0,0.0,1.0,63,0.00,,,0.00,,2013-01-24 15:52:00,
2013-01-24 07:02:00,-3.0,-12.0,29.08,North,0,0.0,1.0,63,0.00,,,0.00,,2013-01-24 16:02:00,
2013-01-24 07:12:00,-3.0,-12.0,29.08,North,0,0.0,1.0,63,0.00,,,0.00,,2013-01-24 16:12:00,
2013-01-24 07:22:00,-3.0,-12.0,29.08,North,0,0.0,1.0,63,0.00,,,0.00,,2013-01-24 16:22:00,
2013-01-24 07:33:00,-3.0,-13.0,29.08,SE,142,0.0,1.0,62,0.00,,,0.00,,2013-01-24 16:33:00,
2013-01-24 07:43:00,-3.0,-13.0,29.08,SE,142,0.0,1.0,62,0.00,,,0.00,,2013-01-24 16:43:00,
2013-01-24 08:01:00,-3.0,-13.0,29.08,SE,142,0.0,1.0,62,0.00,,,0.00,,2013-01-24 17:01:00,
2013-01-24 08:11:00,-3.0,-13.0,29.08,SE,142,0.0,1.0,62,0.00,,,0.00,,2013-01-24 17:11:00,
2013-01-24 08:21:00,-3.0,-13.0,29.08,SE,142,0.0,1.0,62,0.00,,,0.00,,2013-01-24 17:21:00,
2013-01-24 08:31:00,-3.0,-13.0,29.08,SE,142,0.0,1.0,61,0.00,,,0.00,,2013-01-24 17:31:00,
2013-01-24 08:42:00,-3.0,-13.0,29.08,SE,142,0.0,1.0,61,0.00,,,0.00,,2013-01-24 17:42:00,
2013-01-24 08:51:00,-3.0,-13.0,29.08,SE,142,0.0,1.0,61,0.00,,,0.00,,2013-01-24 17:51:00,
2013-01-24 09:02:00,-3.0,-13.0,29.09,SE,142,0.0,1.0,60,0.00,,,0.00,,2013-01-24 18:02:00,
2013-01-24 09:12:00,-3.0,-13.0,29.09,SE,142,0.0,1.0,60,0.00,,,0.00,,2013-01-24 18:12:00,
2013-01-24 09:22:00,-3.0,-13.0,29.09,SE,142,0.0,1.0,60,0.00,,,0.00,,2013-01-24 18:22:00,
2013-01-24 09:32:00,-3.0,-13.0,29.09,SE,142,0.0,1.0,60,0.00,,,0.00,,2013-01-24 18:32:00,
2013-01-24 09:42:00,-3.0,-13.0,29.09,SE,142,0.0,1.0,60,0.00,,,0.00,,2013-01-24 18:42:00,
2013-01-24 09:52:00,-3.0,-14.0,29.09,SE,142,0.0,1.0,59,0.00,,,0.00,,2013-01-24 18:52:00,
2013-01-24 10:01:00,-3.0,-14.0,29.10,SE,142,0.0,1.0,58,0.00,,,0.00,,2013-01-24 19:01:00,
2013-01-24 10:12:00,-3.0,-14.0,29.10,SE,142,0.0,1.0,58,0.00,,,0.00,,2013-01-24 19:12:00,
2013-01-24 10:21:00,-3.0,-14.0,29.10,SE,142,0.0,1.0,58,0.00,,,0.00,,2013-01-24 19:21:00,
2013-01-24 10:32:00,-4.0,-15.0,29.10,SE,142,0.0,1.0,58,0.00,,,0.00,,2013-01-24 19:32:00,
2013-01-24 10:42:00,-4.0,-15.0,29.10,SE,140,0.0,1.0,57,0.00,,,0.00,,2013-01-24 19:42:00,
2013-01-24 10:52:00,-4.0,-15.0,29.10,SE,140,0.0,1.0,57,0.00,,,0.00,,2013-01-24 19:52:00,
2013-01-24 11:01:00,-4.0,-15.0,29.11,ENE,70,0.0,1.0,58,0.00,,,0.00,,2013-01-24 20:01:00,
2013-01-24 11:11:00,-4.0,-15.0,29.11,ENE,70,0.0,1.0,58,0.00,,,0.00,,2013-01-24 20:11:00,
2013-01-24 11:21:00,-4.0,-15.0,29.11,ENE,70,0.0,1.0,58,0.00,,,0.00,,2013-01-24 20:21:00,
2013-01-24 11:32:00,-4.0,-15.0,29.11,ENE,70,0.0,1.0,59,0.00,,,0.00,,2013-01-24 20:32:00,
2013-01-24 11:42:00,-4.0,-15.0,29.11,ENE,70,0.0,1.0,59,0.00,,,0.00,,2013-01-24 20:42:00,
2013-01-24 11:52:00,-4.0,-15.0,29.11,ENE,70,0.0,1.0,59,0.00,,,0.00,,2013-01-24 20:52:00,
2013-01-24 12:02:00,-5.0,-15.0,29.11,ESE,113,0.0,1.0,60,0.00,,,0.00,,2013-01-24 21:02:00,
2013-01-24 12:11:00,-5.0,-15.0,29.12,ESE,102,0.0,1.0,61,0.00,,,0.00,,2013-01-24 21:11:00,
2013-01-24 12:21:00,-5.0,-15.0,29.12,ESE,102,0.0,1.0,61,0.00,,,0.00,,2013-01-24 21:21:00,
2013-01-24 12:32:00,-5.0,-15.0,29.12,East,98,0.0,1.0,61,0.00,,,0.00,,2013-01-24 21:32:00,
2013-01-24 12:42:00,-5.0,-15.0,29.12,East,98,0.0,1.0,61,0.00,,,0.00,,2013-01-24 21:42:00,
2013-01-24 12:52:00,-5.0,-15.0,29.12,NNE,31,0.0,1.0,62,0.00,,,0.00,,2013-01-24 21:52:00,
2013-01-24 13:02:00,-5.0,-15.0,29.12,NNE,31,0.0,1.0,62,0.00,,,0.00,,2013-01-24 22:02:00,
2013-01-24 13:12:00,-5.0,-15.0,29.12,NNE,31,0.0,1.0,62,0.00,,,0.00,,2013-01-24 22:12:00,
2013-01-24 13:21:00,-5.0,-15.0,29.12,NNE,31,0.0,1.0,62,0.00,,,0.00,,2013-01-24 22:21:00,
2013-01-24 13:32:00,-5.0,-15.0,29.13,SE,127,0.0,1.0,62,0.00,,,0.00,,2013-01-24 22:32:00,
2013-01-24 13:42:00,-5.0,-15.0,29.13,SE,127,0.0,1.0,62,0.00,,,0.00,,2013-01-24 22:42:00,
2013-01-24 13:52:00,-5.0,-15.0,29.13,SE,127,0.0,1.0,62,0.00,,,0.00,,2013-01-24 22:52:00,
2013-01-24 14:01:00,-5.0,-15.0,29.13,SE,127,0.0,1.0,62,0.00,,,0.00,,2013-01-24 23:01:00,
2013-01-24 14:11:00,-5.0,-15.0,29.13,SE,127,0.0,1.0,62,0.00,,,0.00,,2013-01-24 23:11:00,
2013-01-24 14:21:00,-5.0,-15.0,29.13,North,1,0.0,1.0,62,0.00,,,0.00,,2013-01-24 23:21:00,
2013-01-24 14:32:00,-5.0,-14.0,29.13,North,1,0.0,1.0,63,0.00,,,0.00,,2013-01-24 23:32:00,
2013-01-24 14:42:00,-5.0,-14.0,29.13,North,1,0.0,1.0,63,0.00,,,0.00,,2013-01-24 23:42:00,
2013-01-24 14:52:00,-5.0,-14.0,29.13,North,1,0.0,1.0,63,0.00,,,0.00,,2013-01-24 23:52:00,
2013-01-24 15:01:00,-5.0,-14.0,29.13,North,1,0.0,1.0,63,0.00,,,0.00,,2013-01-25 00:01:00,
2013-01-24 15:12:00,-5.0,-14.0,29.13,North,1,0.0,1.0,63,0.00,,,0.00,,2013-01-25 00:12:00,
2013-01-24 15:21:00,-5.0,-15.0,29.13,North,1,0.0,1.0,62,0.00,,,0.00,,2013-01-25 00:21:00,
2013-01-24 15:32:00,-5.0,-15.0,29.13,North,1,0.0,1.0,62,0.00,,,0.00,,2013-01-25 00:32:00,
2013-01-24 15:41:00,-5.0,-15.0,29.13,North,1,0.0,1.0,62,0.00,,,0.00,,2013-01-25 00:41:00,
2013-01-24 15:51:00,-5.0,-15.0,29.13,North,1,0.0,1.0,62,0.00,,,0.00,,2013-01-25 00:51:00,
2013-01-24 16:01:00,-5.0,-15.0,29.14,North,1,0.0,1.0,62,0.00,,,0.00,,2013-01-25 01:01:00,
2013-01-24 16:11:00,-5.0,-14.0,29.14,North,1,0.0,1.0,63,0.00,,,0.00,,2013-01-25 01:11:00,
2013-01-24 16:21:00,-5.0,-14.0,29.14,North,1,0.0,1.0,63,0.00,,,0.00,,2013-01-25 01:21:00,
2013-01-24 16:31:00,-5.0,-15.0,29.14,North,1,0.0,1.0,62,0.00,,,0.00,,2013-01-25 01:31:00,
2013-01-24 16:42:00,-5.0,-15.0,29.14,North,1,0.0,1.0,62,0.00,,,0.00,,2013-01-25 01:42:00,
2013-01-24 16:51:00,-5.0,-14.0,29.14,North,1,0.0,1.0,63,0.00,,,0.00,,2013-01-25 01:51:00,
2013-01-24 17:01:00,-6.0,-15.0,29.14,North,1,0.0,1.0,63,0.00,,,0.00,,2013-01-25 02:01:00,
2013-01-24 17:11:00,-6.0,-15.0,29.14,North,1,0.0,1.0,63,0.00,,,0.00,,2013-01-25 02:11:00,
2013-01-24 17:21:00,-6.0,-15.0,29.15,North,1,0.0,1.0,63,0.00,,,0.00,,2013-01-25 02:21:00,
2013-01-24 17:32:00,-6.0,-15.0,29.15,North,1,0.0,1.0,64,0.00,,,0.00,,2013-01-25 02:32:00,
2013-01-24 17:42:00,-6.0,-16.0,29.15,North,1,0.0,1.0,62,0.00,,,0.00,,2013-01-25 02:42:00,
2013-01-24 17:52:00,-6.0,-16.0,29.15,North,1,0.0,1.0,62,0.00,,,0.00,,2013-01-25 02:52:00,
2013-01-24 18:01:00,-6.0,-17.0,29.15,North,1,0.0,1.0,59,0.00,,,0.00,,2013-01-25 03:01:00,
2013-01-24 18:12:00,-6.0,-16.0,29.15,North,1,0.0,1.0,60,0.00,,,0.00,,2013-01-25 03:12:00,
2013-01-24 18:21:00,-6.0,-16.0,29.15,North,1,0.0,1.0,60,0.00,,,0.00,,2013-01-25 03:21:00,
2013-01-24 18:32:00,-6.0,-16.0,29.16,North,1,0.0,1.0,61,0.00,,,0.00,,2013-01-25 03:32:00,
2013-01-24 18:41:00,-6.0,-16.0,29.16,North,1,0.0,1.0,61,0.00,,,0.00,,2013-01-25 03:41:00,
2013-01-24 18:52:00,-6.0,-16.0,29.15,North,1,0.0,1.0,61,0.00,,,0.00,,2013-01-25 03:52:00,
2013-01-24 19:01:00,-7.0,-17.0,29.16,North,1,0.0,1.0,62,0.00,,,0.00,,2013-01-25 04:01:00,
2013-01-24 19:11:00,-7.0,-17.0,29.16,North,1,0.0,1.0,60,0.00,,,0.00,,2013-01-25 04:11:00,
2013-01-24 19:22:00,-7.0,-17.0,29.16,North,1,0.0,1.0,60,0.00,,,0.00,,2013-01-25 04:22:00,
2013-01-24 19:31:00,-7.0,-17.0,29.16,North,1,0.0,1.0,60,0.00,,,0.00,,2013-01-25 04:31:00,
2013-01-24 19:41:00,-7.0,-17.0,29.16,North,1,0.0,1.0,60,0.00,,,0.00,,2013-01-25 04:41:00,
2013-01-24 19:51:00,-7.0,-18.0,29.16,North,1,0.0,1.0,59,0.00,,,0.00,,2013-01-25 04:51:00,
2013-01-24 20:03:00,-7.0,-18.0,29.16,North,1,0.0,1.0,59,0.00,,,0.00,,2013-01-25 05:03:00,
2013-01-24 20:12:00,-7.0,-18.0,29.16,NNE,26,0.0,1.0,57,0.00,,,0.00,,2013-01-25 05:12:00,
2013-01-24 20:22:00,-7.0,-18.0,29.16,NNE,26,0.0,1.0,57,0.00,,,0.00,,2013-01-25 05:22:00,
2013-01-24 20:32:00,-7.0,-18.0,29.16,NNE,21,0.0,1.0,57,0.00,,,0.00,,2013-01-25 05:32:00,
2013-01-24 20:42:00,-7.0,-18.0,29.16,NNE,21,0.0,1.0,57,0.00,,,0.00,,2013-01-25 05:42:00,
2013-01-24 20:51:00,-7.0,-18.0,29.16,NNE,21,0.0,1.0,58,0.00,,,0.00,,2013-01-25 05:51:00,
2013-01-24 21:01:00,-7.0,-18.0,29.16,NNE,21,0.0,1.0,58,0.00,,,0.00,,2013-01-25 06:01:00,
2013-01-24 21:11:00,-7.0,-18.0,29.16,NNE,21,0.0,1.0,58,0.00,,,0.00,,2013-01-25 06:11:00,
2013-01-24 21:21:00,-7.0,-18.0,29.16,NNW,348,0.0,1.0,57,0.00,,,0.00,,2013-01-25 06:21:00,
2013-01-24 21:31:00,-7.0,-18.0,29.17,NNW,348,0.0,1.0,57,0.00,,,0.00,,2013-01-25 06:31:00,
2013-01-24 21:41:00,-7.0,-19.0,29.17,NNW,348,0.0,1.0,56,0.00,,,0.00,,2013-01-25 06:41:00,
2013-01-24 21:51:00,-7.0,-19.0,29.17,NNW,348,0.0,1.0,56,0.00,,,0.00,,2013-01-25 06:51:00,
2013-01-24 22:01:00,-7.0,-19.0,29.17,North,0,0.0,1.0,56,0.00,,,0.00,,2013-01-25 07:01:00,
2013-01-24 22:11:00,-7.0,-18.0,29.18,North,0,0.0,1.0,57,0.00,,,0.00,,2013-01-25 07:11:00,
2013-01-24 22:21:00,-7.0,-18.0,29.18,North,0,0.0,1.0,57,0.00,,,0.00,,2013-01-25 07:21:00,
2013-01-24 22:31:00,-7.0,-19.0,29.18,North,0,0.0,1.0,56,0.00,,,0.00,,2013-01-25 07:31:00,
2013-01-24 22:41:00,-8.0,-19.0,29.18,North,0,0.0,1.0,56,0.00,,,0.00,,2013-01-25 07:41:00,
2013-01-24 22:51:00,-8.0,-19.0,29.18,North,0,0.0,1.0,56,0.00,,,0.00,,2013-01-25 07:51:00,
2013-01-24 23:01:00,-8.0,-20.0,29.18,North,0,0.0,1.0,55,0.00,,,0.00,,2013-01-25 08:01:00,
2013-01-24 23:11:00,-9.0,-21.0,29.18,North,0,0.0,1.0,55,0.00,,,0.00,,2013-01-25 08:11:00,
2013-01-24 23:21:00,-9.0,-21.0,29.18,North,0,0.0,1.0,55,0.00,,,0.00,,2013-01-25 08:21:00,
2013-01-24 23:32:00,-9.0,-20.0,29.18,North,0,0.0,1.0,56,0.00,,,0.00,,2013-01-25 08:32:00,
2013-01-24 23:41:00,-9.0,-20.0,29.18,North,0,0.0,1.0,56,0.00,,,0.00,,2013-01-25 08:41:00,
2013-01-24 23:51:00,-9.0,-20.0,29.18,North,0,0.0,1.0,56,0.00,,,0.00,,2013-01-25 08:51:00,